Location: Ash Swamp
(41.5170°N, 74.6157°W)
Time: 02:29:39
(UTC+00:00)

IRAS Rocket - Pass Details

Date: 14 July 2020
Orbit: 848 x 877 km, 100.1° (Epoch: 14 August)

Event Time Altitude Azimuth Distance (km) Brightness Sun altitude
Exits shadow 07:00:58 42° 230° (SW) 1,187 4.5 -21.4°
Maximum altitude 07:01:55 47° 259° (W) 1,118 4.5 -21.3°
Drops below altitude 10° 07:07:13 10° 333° (NNW) 2,486 7.0 -20.8°
Sets 07:09:41 0° 339° (NNW) 3,429 7.9 -20.5°
